Prescott, AZ

2:10 PM MST on November 15, 2019 (GMT -0700)
Love

Weather History for KPRC - June, 2019

Change the Weather History Date:

Monday, June 10, 2019

  Actual Average Record
Temperature  
Mean Temperature 72 °F 69 °F  
Max Temperature 91 °F 85 °F 95 °F (1994)
Min Temperature 54 °F 53 °F 37 °F (1965)
Degree Days  
Heating Degree Days 0    
Month to date heating degree days 2  
Since 1 July heating degree days 4330  
Cooling Degree Days 8    
Month to date cooling degree days 33  
Year to date cooling degree days 34  
Growing Degree Days 22 (Base 50)    
Moisture  
Dew Point 29 °F    
Average Humidity 23    
Maximum Humidity 46    
Minimum Humidity 9    
Precipitation  
Precipitation 0.00 in 0.00 in 0.35 in (1957)
Month to date precipitation 0.11 0.08  
Year to date precipitation 6.79 4.62  
Sea Level Pressure  
Sea Level Pressure 30.02 in    
Wind  
Wind Speed 5 mph ()    
Max Wind Speed 29 mph    
Max Gust Speed 39 mph    
Visibility 10.0 miles    
Events      
T = Trace of Precipitation, MM = Missing Value Source: Averaged Metar Reports

Daily Weather History Graph

Daily Weather History Graph

Search for Another Location

Airport or City:

Astronomy

Jun. 10, 2019 Rise Set
Actual Time 5:16 AM MST 7:42 PM MST
Civil Twilight 4:46 AM MST 8:11 PM MST
Nautical Twilight 4:10 AM MST 8:47 PM MST
Astronomical Twilight 3:30 AM MST 9:27 PM MST
Moon 12:56 PM MST (6/10) 1:09 AM MST (6/10)
Length of Visible Light 15h 24m
Length of Day
14h 26m
First Quarter, 56% of the Moon is Illuminated
Jun 10
First Quarter
Jun 17
Full
Jun 25
Last Quarter
Jul 2
New
Jul 9
First Quarter

Hourly Weather History & Observations

Time (MST) Temp. Dew Point Humidity Pressure Visibility Wind Dir Wind Speed Gust Speed Precip Events Conditions
12:53 AM 62.1 °F 34.0 °F 35% 29.99 in 10.0 mi West 4.6 mph - N/A   Clear
1:53 AM 59.0 °F 34.0 °F 39% 30.01 in 10.0 mi SW 4.6 mph - N/A   Clear
2:53 AM 55.9 °F 34.0 °F 44% 30.01 in 10.0 mi Calm Calm - N/A   Clear
3:53 AM 54.0 °F 33.1 °F 45% 30.01 in 10.0 mi SSW 3.5 mph - N/A   Clear
4:53 AM 54.0 °F 30.0 °F 40% 30.03 in 10.0 mi SSW 4.6 mph - N/A   Clear
5:53 AM 55.9 °F 30.9 °F 39% 30.04 in 10.0 mi SSW 5.8 mph - N/A   Clear
6:53 AM 63.0 °F 35.1 °F 35% 30.04 in 10.0 mi South 4.6 mph - N/A   Clear
7:53 AM 71.1 °F 24.1 °F 17% 30.04 in 10.0 mi North 3.5 mph - N/A   Clear
8:53 AM 75.0 °F 23.0 °F 14% 30.06 in 10.0 mi Calm Calm - N/A   Clear
9:53 AM 81.0 °F 26.1 °F 13% 30.04 in 10.0 mi Variable 5.8 mph - N/A   Clear
10:53 AM 84.0 °F 26.1 °F 12% 30.03 in 10.0 mi SE 10.4 mph - N/A   Clear
11:53 AM 86.0 °F 27.0 °F 12% 30.04 in 10.0 mi Variable 5.8 mph - N/A   Clear
12:53 PM 89.1 °F 28.0 °F 11% 30.01 in 10.0 mi SSW 15.0 mph 39.1 mph N/A   Clear
1:53 PM 89.1 °F 26.1 °F 10% 30.01 in 10.0 mi North - - N/A   Clear
2:53 PM 89.1 °F 25.0 °F 10% 30.00 in 10.0 mi SSE 11.5 mph 17.3 mph N/A   Clear
3:53 PM 88.0 °F 26.1 °F 11% 30.00 in 10.0 mi SW 10.4 mph - N/A   Clear
4:53 PM 88.0 °F 24.1 °F 10% 29.99 in 10.0 mi West 6.9 mph - N/A   Clear
5:53 PM 86.0 °F 25.0 °F 11% 29.98 in 10.0 mi SW 13.8 mph - N/A   Clear
6:53 PM 82.9 °F 26.1 °F 13% 29.97 in 10.0 mi WSW 8.1 mph - N/A   Clear
7:53 PM 77.0 °F 28.0 °F 17% 29.98 in 10.0 mi SW 6.9 mph - N/A   Clear
8:53 PM 70.0 °F 35.1 °F 28% 30.01 in 10.0 mi SSW 5.8 mph - N/A   Clear
9:53 PM 69.1 °F 33.1 °F 26% 30.02 in 10.0 mi South 6.9 mph - N/A   Clear
10:53 PM 64.0 °F 39.0 °F 40% 30.03 in 10.0 mi South 3.5 mph - N/A   Clear
11:53 PM 66.9 °F 33.1 °F 28% 30.02 in 10.0 mi SSW 4.6 mph - N/A   Clear